Flag for U.S.A. Weather past 2 weeks in Salem, Oregon, U.S.A.

Now
65 °F

Passing clouds.


Feels Like: 65 °F
Forecast: 64 / 94 °F
Wind: 3 mph from East

Location: McNary Field

Current Time: Aug 2, 2015 at 6:01:11 AM

Latest Report: Aug 2, 2015 at 4:56 AM


Visibility: 10 mi

Pressure: 29.88 "Hg

Humidity: 63%

Dew point: 52 °F

Location of SalemLocation

Historic Weather in Salem — Graph

°F

Salem temperature yesterday

Maximum temperature yesterday: 99 °F (at 3:56 PM)
Minimum temperature yesterday: 63 °F (at 5:56 AM)
Average temperature yesterday: 80 °F

Past Weeks' High & Low Weather Summary

 TemperatureHumidityPressure
High105 °F (Jul 30, 4:56 PM)87% (Jul 20, 5:56 AM)30.23 "Hg (Jul 20, 5:56 AM)
Low52 °F (Jul 27, 5:56 AM)10% (Jul 30, 5:56 PM)29.80 "Hg (Aug 1, 6:56 PM)
Average73 °F49%30.01 "Hg
* Reported Jul 18 4:56 AM — Aug 2 4:56 AM, Salem, Weather by CustomWeather, © 2015

Note: Actual official high and low records may vary slightly from our data, if they occured in-between our weather recording intervals... More about our weather records

Advertising

Salem weather history for previous 24 hours

 ConditionsComfort  
Time TempWeatherWind HumidityBarometerVisibility
4:56 AM
Sun, Aug 2
65 °FPassing clouds.3 mph63%29.88 "Hg10 mi
3:56 AM65 °FClear.7 mph66%29.88 "Hg10 mi
2:56 AM69 °FClear.No wind57%29.88 "Hg10 mi
1:56 AM68 °FClear.3 mph57%29.87 "Hg10 mi
12:56 AM72 °FClear.No wind52%29.86 "Hg10 mi
11:56 PM
Sat, Aug 1
73 °FClear.No wind50%29.85 "Hg10 mi
10:56 PM74 °FClear.3 mph46%29.84 "Hg10 mi
9:56 PM81 °FClear.No wind35%29.83 "Hg10 mi
8:56 PM86 °FSunny.5 mph29%29.82 "Hg10 mi
7:56 PM92 °FSunny.5 mph22%29.80 "Hg10 mi
6:56 PM97 °FSunny.7 mph17%29.80 "Hg10 mi
5:56 PM97 °FSunny.5 mph15%29.80 "Hg10 mi
4:56 PM98 °FSunny.9 mph14%29.82 "Hg10 mi
3:56 PM99 °FSunny.12 mph13%29.83 "Hg10 mi
2:56 PM97 °FSunny.10 mph16%29.85 "Hg10 mi
1:56 PM94 °FSunny.12 mph19%29.88 "Hg10 mi
12:56 PM89 °FSunny.9 mph22%29.90 "Hg10 mi
11:56 AM85 °FSunny.7 mph23%29.92 "Hg10 mi
10:56 AM82 °FSunny.9 mph25%29.93 "Hg10 mi
9:56 AM77 °FSunny.7 mph28%29.94 "Hg10 mi
8:56 AM74 °FSunny.7 mph33%29.96 "Hg10 mi
7:56 AM71 °FSunny.5 mph39%29.96 "Hg10 mi
6:56 AM66 °FClear.5 mph47%29.96 "Hg10 mi
Weather by CustomWeather, © 2015

See weather overviewHow to use our weather pages